[[{"header":{"parameterUnit":"m.s-1","parameterCategory":1,"la1":30.2991,"la2":30.254,"lo1":-89.0895,"lo2":-89.0444,"dy":0.0017,"dx":0.0017,"nx":28,"ny":28,"refTime":"2024-04-29T03:00:00:Z","depth":0,"parameterNumber":2,"parameterNumberName":"U-component_of_WINDS"},"data":[0,0,0,0,0,0,0,0,0,0,0,0,0,0,0,0,0,0,0,0,0,0,0,0,0,0,0,0,0,0,0,0,0,0,0,0,0,0,0,0,0,0,0,0,0,0,0,0,0,0,0,0,0,0,0,0,0,0,-10.3725,-10.3736,0,-10.4735,-10.4747,-10.4758,-10.4981,-10.4974,-10.4966,-10.496,-10.5991,-10.6024,-10.6058,0,0,0,0,0,0,0,0,0,0,0,0,0,-10.199,-10.202,-10.3724,-10.3737,-10.3749,-10.4733,-10.4747,-10.4761,-10.4982,-10.4973,-10.4965,-10.4956,-10.598,-10.602,-10.6061,0,0,0,0,0,0,0,0,0,0,0,0,0,-10.2845,-10.203,-10.3722,-10.3978,-10.4011,-10.473,-10.4748,-10.4765,-10.4984,-10.4973,-10.4962,-10.4952,-10.5966,-10.6016,-10.6067,-10.6601,0,0,-10.6224,-10.6246,0,0,0,0,0,0,0,0,-10.2797,-10.2909,-10.3928,-10.3962,-10.4,-10.4721,-10.4514,-10.538,-10.4987,-10.4615,-10.4959,-10.4947,-10.5577,-10.566,-10.5873,-10.6649,-10.6693,-10.6228,-10.6259,-10.6281,-10.6296,0,0,0,0,0,0,0,-10.2737,-10.2867,-10.4124,-10.3943,-10.3987,-10.4044,-10.4154,-10.4679,-10.5144,-10.4646,-10.4665,-10.4782,-10.5595,-10.5823,-10.5899,-10.6709,-10.6227,-10.6272,-10.6304,-10.6324,-10.7979,-10.7992,0,0,0,0,0,0,-10.2633,-10.2816,-10.4092,-10.4154,-10.336,-10.4084,-10.4207,-10.45,-10.5139,-10.5226,-10.479,-10.4788,-10.5741,-10.5839,-10.5936,-10.6606,-10.6281,-10.6329,-10.6358,-10.7966,-10.7982,-10.7996,0,0,0,0,0,0,-10.2595,-10.2744,-10.4051,-10.3491,-10.3662,-10.4126,-10.4454,-10.4526,-10.4755,-10.5248,-10.5332,-10.4937,-10.5736,-10.5864,-10.6435,-10.6644,-10.6352,-10.6399,-10.795,-10.7971,-10.7989,-10.7946,0,0,0,0,0,0,-10.2544,-10.2729,-10.2935,-10.3494,-10.3691,-10.4533,-10.4467,-10.4554,-10.4843,-10.485,-10.5408,-10.549,-10.5737,-10.6358,-10.6486,-10.671,-10.6439,-10.7934,-10.7959,-10.7983,-10.7931,-10.7962,-10.7989,0,0,0,0,0,-10.2481,-10.2882,-10.2945,-10.3097,-10.3958,-10.4544,-10.4657,-10.4933,-10.4859,-10.5071,-10.5389,-10.5473,-10.6601,-10.6414,-10.6561,-10.6803,-10.7922,-10.7952,-10.7981,-10.7918,-10.7956,-10.7988,0,0,0,0,0,0,-10.2333,-10.2959,-10.3036,-10.3629,-10.4032,-10.458,-10.4856,-10.4964,-10.5396,-10.5384,-10.5709,-10.5833,-10.6385,-10.6653,-10.6433,-10.7356,-10.7259,-10.7319,-10.7161,-10.7201,-10.7229,-10.7152,-10.6482,0,0,0,0,0,-10.237,-10.2793,-10.3318,-10.379,-10.3989,-10.4388,-10.4653,-10.4833,-10.5262,-10.5433,-10.5793,-10.6206,-10.6656,-10.6943,-10.7383,-10.7972,-10.8098,-10.8212,-10.824,-10.8262,-10.8309,-10.8644,-10.8701,-10.8094,-10.8093,-10.8093,0,0,-10.2449,-10.2844,-10.309,-10.3771,-10.4104,-10.4536,-10.4529,-10.4986,-10.531,-10.5503,-10.6065,-10.6344,-10.6827,-10.741,-10.7685,-10.765,-10.8506,-10.8299,-10.8313,-10.835,-10.868,-10.8737,-10.8787,-10.8114,-10.811,-10.8107,0,0,-10.2814,-10.3155,-10.3588,-10.3924,-10.443,-10.4694,-10.4797,-10.5334,-10.5527,-10.6097,-10.6252,-10.6643,-10.7408,-10.7747,-10.8019,-10.8521,-10.8615,-10.8656,-10.8805,-10.9127,-10.9175,-10.9219,-10.9399,-10.9459,-10.8702,-10.8702,-10.8702,0,-10.2848,-10.3505,-10.3796,-10.4249,-10.4544,-10.4743,-10.5185,-10.5497,-10.6119,-10.6319,-10.6272,-10.724,-10.7579,-10.8246,-10.8369,-10.8583,-10.8712,-10.8591,-10.9145,-10.9192,-10.9237,-10.9412,-10.9479,-10.8704,-10.8703,-10.8703,-10.8703,0,-10.3523,-10.3977,-10.4267,-10.4866,-10.5196,-10.5639,-10.5999,-10.6298,-10.6451,-10.672,-10.73,-10.7716,-10.8244,-10.8417,-10.8568,-10.9108,-10.907,-10.908,-10.8988,-10.9292,-10.9462,-10.9531,-10.8706,-10.8705,-10.8705,-10.8704,0,0,-10.3816,-10.4577,-10.4678,-10.4954,-10.5531,-10.5888,-10.6344,-10.6864,-10.7114,-10.754,-10.793,-10.8576,-10.8591,-10.89,-10.9093,-10.9376,-10.9749,-10.9353,-10.9369,-10.9411,-11.037,-11.0357,-11.043,-10.9816,-10.983,-10.9842,-11.033,0,-10.425,-10.507,-10.5349,-10.6028,-10.6453,-10.6652,-10.705,-10.7447,-10.7712,-10.8112,-10.8406,-10.8859,-10.8844,-10.9032,-10.9322,-10.9641,-10.9945,-10.9611,-11.0182,-11.0199,-11.0052,-11.052,-11.0508,-11.0947,-11.0398,-11.0409,-11.0418,0,-10.4864,-10.5302,-10.6024,-10.6553,-10.6742,-10.7094,-10.7596,-10.7976,-10.8432,-10.8606,-10.8955,-10.9129,-10.9614,-10.9496,-11.017,-10.9936,-11.0187,-11.038,-11.0404,-11.0466,-11.0324,-11.0592,-11.1094,-11.1159,-11.0525,-11.0517,-11.0509,0,-10.5005,-10.5775,-10.6308,-10.6539,-10.7169,-10.7413,-10.7687,-10.8133,-10.843,-10.8869,-10.9065,-10.9554,-10.9821,-11.0195,-11.0497,-11.0383,-11.1144,-11.1051,-11.1301,-11.1294,-11.1449,-11.1435,-11.1997,-11.1614,-11.1613,-11.1611,-11.161,0,-10.5459,-10.5893,-10.6381,-10.6707,-10.7201,-10.752,-10.8,-10.8286,-10.8683,-10.907,-10.9272,-10.9631,-11.0009,-11.0418,-11.0657,-11.1179,-11.1298,-11.1452,-11.151,-11.1434,-11.1414,-11.16,-11.1576,-11.1629,-11.1625,-11.1622,-11.1619,0,-10.5696,-10.6041,-10.6635,-10.7186,-10.7335,-10.7674,-10.8147,-10.8473,-10.875,-10.9238,-10.9371,-10.9805,-11.0298,-11.0637,-11.1268,-11.1429,-11.1994,-11.2048,-11.1839,-11.1868,-11.2099,-11.2072,-11.2799,-11.2911,-11.2452,-11.2456,-11.2459,0,-10.5961,-10.6301,-10.6891,-10.7166,-10.7441,-10.7881,-10.8187,-10.8517,-10.8826,-10.9376,-10.9637,-11.0144,-11.0566,-11.1344,-11.1715,-11.22,-11.2267,-11.2489,-11.234,-11.2254,-11.227,-11.2245,-11.2281,-11.2509,-11.2512,-11.2515,-11.2517,0,-10.6396,-10.6552,-10.6985,-10.7481,-10.7841,-10.8246,-10.8653,-10.8867,-10.9269,-10.9607,-11.0115,-11.0443,-11.1091,-11.1592,-11.2114,-11.2396,-11.2525,-11.2562,-11.2646,-11.2569,-11.2435,-11.2511,-11.19,-11.2543,-11.254,-11.2538,-11.2537,-11.2536,-10.6657,-10.6969,-10.7435,-10.7912,-10.8255,-10.8632,-10.8968,-10.9289,-10.9719,-11.0274,-11.0443,-11.0971,-11.1425,-11.214,-11.2431,-11.2848,-11.2831,-11.2951,-11.2982,-11.3006,-11.3005,-11.237,-11.2945,-11.2944,-11.2944,-11.2944,-11.2944,0,-10.7101,-10.7413,-10.7849,-10.8415,-10.8792,-10.8885,-10.9343,-10.9651,-11.0114,-11.0528,-11.0943,-11.1528,-11.2017,-11.243,-11.2935,-11.3191,-11.3263,-11.3312,-11.3295,-11.3359,-11.2992,-11.2869,-11.3246,-11.3246,-11.3246,-11.3246,-11.3246,-11.3245,-10.7376,-10.7911,-10.8123,-10.8831,-10.9141,-10.9662,-10.9915,-11.0266,-11.0599,-11.1245,-11.1653,-11.1921,-11.2336,-11.2875,-11.3328,-11.3437,-11.3613,-11.3649,-11.3771,-11.3419,-11.3384,-11.3351,-11.3237,-11.3685,-11.3686,-11.4104,-11.4108,-11.411]},{"header":{"parameterUnit":"m.s-1","parameterCategory":1,"la1":30.2991,"la2":30.254,"lo1":-89.0895,"lo2":-89.0444,"dy":0.0017,"dx":0.0017,"nx":28,"ny":28,"refTime":"2024-04-29T03:00:00:Z","depth":0,"parameterNumber":3,"parameterNumberName":"V-component_of_WINDS"},"data":[0,0,0,0,0,0,0,0,0,0,0,0,0,0,0,0,0,0,0,0,0,0,0,0,0,0,0,0,0,0,0,0,0,0,0,0,0,0,0,0,0,0,0,0,0,0,0,0,0,0,0,0,0,0,0,0,0,0,7.0969,7.0975,0,7.154,7.1546,7.1553,7.1719,7.1716,7.1713,7.171,7.2292,7.2309,7.2328,0,0,0,0,0,0,0,0,0,0,0,0,0,7.002,7.0036,7.0968,7.0975,7.0983,7.1539,7.1546,7.1554,7.1719,7.1715,7.1712,7.1708,7.2286,7.2307,7.2329,0,0,0,0,0,0,0,0,0,0,0,0,0,7.0495,7.0042,7.0967,7.1132,7.1152,7.1537,7.1547,7.1556,7.172,7.1715,7.1711,7.1707,7.2278,7.2305,7.2332,7.2593,0,0,7.2416,7.2428,0,0,0,0,0,0,0,0,7.0468,7.053,7.1101,7.1121,7.1145,7.1553,7.1426,7.1904,7.1721,7.1504,7.171,7.1704,7.205,7.2095,7.2213,7.262,7.2645,7.2419,7.2435,7.2447,7.2455,0,0,0,0,0,0,0,7.0435,7.0506,7.1194,7.1109,7.1136,7.1177,7.124,7.1517,7.1795,7.1523,7.1536,7.1602,7.2061,7.2186,7.2227,7.2654,7.2418,7.2442,7.2459,7.247,7.3305,7.331,0,0,0,0,0,0,7.0374,7.0477,7.1176,7.1211,7.0788,7.1198,7.1268,7.1427,7.1793,7.1844,7.1605,7.1607,7.2141,7.2195,7.2248,7.2579,7.2447,7.2473,7.2489,7.3299,7.3306,7.3312,0,0,0,0,0,0,7.0353,7.0435,7.1153,7.0849,7.0943,7.1219,7.1396,7.144,7.1566,7.1855,7.1905,7.1682,7.214,7.221,7.2507,7.2602,7.2485,7.251,7.3293,7.3301,7.3309,7.3241,0,0,0,0,0,0,7.0325,7.0426,7.0528,7.085,7.0959,7.1402,7.1402,7.1455,7.1613,7.1621,7.194,7.1989,7.2141,7.2465,7.2534,7.2637,7.2532,7.3285,7.3296,7.3307,7.3236,7.3246,7.3255,0,0,0,0,0,7.029,7.0486,7.0533,7.0616,7.1093,7.1407,7.147,7.1642,7.162,7.1725,7.1911,7.1979,7.2579,7.2494,7.2573,7.2686,7.328,7.3293,7.3306,7.3232,7.3244,7.3255,0,0,0,0,0,0,7.0168,7.0531,7.0587,7.0892,7.1118,7.1435,7.1573,7.165,7.1886,7.1884,7.2087,7.2157,7.244,7.2593,7.2491,7.2958,7.2932,7.2961,7.2848,7.2862,7.2871,7.2829,7.2554,0,0,0,0,0,7.0176,7.0402,7.0707,7.0947,7.1057,7.1295,7.1438,7.1552,7.1793,7.189,7.2097,7.2328,7.257,7.2724,7.2962,7.3258,7.333,7.3375,7.3384,7.339,7.3414,7.3582,7.3606,7.3354,7.3354,7.3354,0,0,7.0196,7.0422,7.0552,7.0928,7.1116,7.1345,7.1374,7.1615,7.1788,7.1926,7.222,7.238,7.2651,7.2948,7.309,7.3085,7.3499,7.3407,7.3409,7.343,7.3598,7.3621,7.3642,7.3363,7.3361,7.336,0,0,7.035,7.0543,7.0765,7.0953,7.1238,7.1395,7.1447,7.1755,7.1866,7.2164,7.2273,7.248,7.2891,7.308,7.323,7.3454,7.3525,7.3526,7.3575,7.3737,7.3757,7.3775,7.3856,7.3883,7.3548,7.3547,7.3547,0,7.0339,7.0689,7.0869,7.1106,7.1268,7.1404,7.163,7.1804,7.2151,7.2259,7.2248,7.2767,7.2959,7.3303,7.3358,7.3474,7.3541,7.3491,7.3739,7.376,7.378,7.3859,7.3889,7.3546,7.3546,7.3546,7.3546,0,7.0662,7.0903,7.1048,7.1381,7.1559,7.1789,7.2003,7.2161,7.2259,7.2416,7.2717,7.2952,7.3241,7.333,7.3427,7.3689,7.3676,7.3699,7.3678,7.3799,7.3877,7.3909,7.3543,7.3544,7.3544,7.3545,0,0,7.0756,7.1185,7.1236,7.1389,7.1713,7.1903,7.2138,7.2421,7.2553,7.2787,7.299,7.3334,7.3358,7.3528,7.3647,7.3789,7.3952,7.3796,7.3805,7.3817,7.4255,7.4236,7.4269,7.4,7.4007,7.4012,7.4233,0,7.0952,7.138,7.1548,7.1896,7.2121,7.2254,7.2459,7.2679,7.2832,7.3045,7.3214,7.3455,7.3468,7.3571,7.3717,7.3901,7.4043,7.3887,7.4191,7.4199,7.412,7.431,7.4292,7.4489,7.4264,7.4269,7.4273,0,7.1239,7.1477,7.1846,7.2144,7.2245,7.2426,7.2699,7.2901,7.3153,7.3255,7.3443,7.3554,7.3805,7.3765,7.4113,7.4003,7.4137,7.4246,7.4258,7.4294,7.4245,7.4352,7.4556,7.4585,7.4323,7.4319,7.4315,0,7.1271,7.1684,7.196,7.2087,7.2439,7.2564,7.2717,7.2965,7.3124,7.3362,7.3467,7.3729,7.3873,7.4074,7.4252,7.4206,7.4583,7.4558,7.4674,7.467,7.475,7.4742,7.4978,7.4832,7.4831,7.4831,7.483,0,7.1474,7.1695,7.198,7.2149,7.2401,7.2592,7.2836,7.2997,7.3216,7.3419,7.3548,7.3734,7.3958,7.4173,7.4313,7.458,7.4644,7.4732,7.4768,7.4723,7.4711,7.4814,7.4806,7.4839,7.4837,7.4836,7.4834,0,7.1554,7.1753,7.2063,7.2371,7.2454,7.2626,7.2891,7.306,7.3218,7.3472,7.3543,7.3791,7.4051,7.4248,7.4585,7.4679,7.4963,7.4999,7.4879,7.4897,7.5003,7.499,7.5315,7.5367,7.5182,7.5184,7.5185,0,7.1671,7.1845,7.2173,7.2318,7.2471,7.2703,7.2867,7.306,7.3225,7.3525,7.3658,7.3927,7.4153,7.4561,7.4771,7.5029,7.5073,7.5168,7.5113,7.5062,7.5076,7.5064,7.5083,7.5176,7.5177,7.5178,7.5179,0,7.1858,7.1948,7.218,7.2446,7.2638,7.2856,7.3077,7.3188,7.3421,7.3599,7.3868,7.4043,7.4387,7.4653,7.4932,7.5088,7.5172,7.5194,7.5235,7.5192,7.5116,7.516,7.4901,7.5187,7.5186,7.5185,7.5185,7.5185,7.1963,7.2124,7.238,7.2634,7.282,7.3023,7.3198,7.3378,7.3606,7.3902,7.4002,7.4278,7.4525,7.4909,7.5067,7.5285,7.5287,7.5345,7.5361,7.5373,7.537,7.5078,7.5336,7.5337,7.5337,7.5337,7.5337,0,7.2159,7.233,7.2561,7.2866,7.3065,7.3128,7.3375,7.3538,7.378,7.4004,7.4224,7.4531,7.4789,7.5018,7.5286,7.5416,7.5462,7.548,7.5474,7.5508,7.5353,7.5291,7.5439,7.5439,7.5439,7.5439,7.5439,7.5439,7.2284,7.256,7.268,7.305,7.322,7.3493,7.3629,7.3817,7.3997,7.4335,7.4551,7.4698,7.4925,7.521,7.5448,7.5509,7.5602,7.5611,7.5681,7.5532,7.5519,7.5507,7.5451,7.5629,7.5629,7.5819,7.5821,7.5822]}]]